Dewpoint
73 73 73 73 74 75 75 75 75 76 76 76 76 75 75 75 75 75 74 74 74 74 73 73 74 73 73 73 73 72 72 72 72 72 72 72 72 72 74 73 73 73 73 75 75 75 75 74 75 75 75 75 75 75 75 75 75 76 76 76 75 75 75 75 75 76 74 74 75 75 75 74 75 75 74 74 74 74 74 74 74 74 74 74 74
74 73 73 73 73 73 74 74 75 76 76 76 76 75 75 75 75 75 74 74 74 74 75 73 73 73 73 73 73 73 73 72 72 72 72 72 72 72 74 74 74 74 74 74 75 75 75 75 75 75 75 75 75 75 76 75 75 76 76 76 76 76 76 75 76 76 75 75 76 76 75 75 75 75 75 75 75 75 75 75 75 74 74 75 75
74 73 72 72 72 72 73 74 75 75 76 76 76 76 75 75 75 75 74 74 73 74 75 73 73 73 74 73 73 73 73 73 73 72 72 72 72 72 72 74 74 74 73 75 75 75 75 75 75 75 75 75 75 75 75 76 76 76 76 76 76 76 76 76 76 76 75 75 75 76 76 76 76 76 76 76 76 75 75 75 75 75 75 75 75
73 72 71 71 69 68 71 73 74 75 76 76 76 76 76 75 75 75 75 74 74 73 73 73 73 73 73 73 73 73 73 73 73 73 73 72 72 72 72 73 74 75 74 74 75 75 75 75 75 75 75 75 75 75 75 76 76 76 76 76 76 76 76 76 76 76 76 76 75 76 76 76 76 76 76 76 76 76 76 76 75 75 75 75 75
73 72 72 69 68 68 70 73 74 75 76 76 76 76 76 75 75 75 74 74 73 73 73 73 72 72 73 73 73 73 73 73 73 72 72 72 72 72 72 73 73 74 74 74 74 75 75 74 74 75 75 75 76 75 75 75 76 76 76 76 76 76 76 76 76 76 76 76 76 76 76 76 76 76 76 76 76 77 76 76 76 76 75 75 75
72 71 71 71 71 71 71 73 75 76 76 76 76 76 76 75 75 75 74 73 73 73 73 72 73 73 72 73 73 73 73 73 73 72 72 72 73 73 73 73 73 73 74 75 74 74 75 75 75 74 75 75 75 76 75 75 75 76 76 76 76 76 76 76 76 76 76 76 76 76 76 76 76 76 77 77 77 77 77 76 76 76 76 76 76
73 72 72 72 71 72 73 74 74 75 75 76 76 76 76 75 75 74 73 73 72 72 72 72 71 71 72 72 72 73 73 73 73 73 72 72 73 73 73 73 73 74 74 76 74 75 75 75 75 75 75 75 75 76 76 75 75 75 75 76 76 76 76 76 76 75 76 76 76 76 76 76 76 76 76 76 76 76 76 77 76 76 76 76 76
74 74 73 73 72 72 73 74 74 75 74 75 75 75 74 74 74 74 73 71 72 71 72 71 71 71 72 72 72 73 72 73 72 72 73 73 73 73 73 74 74 74 74 75 75 75 75 75 75 75 75 75 75 75 76 75 75 75 75 75 76 76 76 76 76 76 76 76 76 76 76 76 76 76 76 76 76 76 76 76 76 76 76 76 76
75 75 74 73 73 73 74 74 75 74 73 74 73 72 71 72 71 73 73 72 71 71 72 71 71 71 71 72 72 72 72 72 72 71 73 73 73 73 73 73 74 75 74 74 75 74 75 76 75 75 75 75 75 75 76 76 76 75 75 75 75 76 76 76 76 76 76 76 76 76 76 76 76 76 76 76 76 76 76 76 76 76 76 76 76
73 73 73 72 74 74 74 75 75 74 73 72 71 71 71 71 71 72 73 72 71 70 71 71 71 71 71 71 72 72 72 72 73 73 73 73 73 73 73 73 73 74 74 74 74 75 75 75 75 75 75 76 76 76 76 76 76 76 75 75 75 75 75 76 76 76 76 76 76 76 76 76 76 76 76 76 76 76 76 76 76 76 76 76 76
73 74 73 74 74 74 73 74 74 73 73 72 71 72 72 71 70 70 72 72 71 71 71 71 71 71 71 71 71 71 72 73 73 73 73 73 73 73 73 74 74 74 74 74 74 75 75 75 75 75 75 75 75 75 76 76 76 76 76 76 75 75 75 75 75 76 76 76 76 76 76 76 76 76 76 76 76 76 76 76 76 76 76 76 76
72 72 73 73 74 73 73 73 73 72 72 72 70 70 70 70 69 70 70 71 72 72 71 71 71 71 71 72 71 71 71 72 72 73 73 72 72 74 73 73 74 74 74 74 74 74 74 75 75 75 75 75 76 76 75 75 76 76 76 76 76 76 75 75 75 75 75 76 76 76 76 76 76 77 76 76 76 76 76 76 76 76 76 76 76
73 73 73 74 74 72 72 72 72 72 71 72 71 70 71 71 71 72 71 70 70 71 71 71 70 70 71 71 71 72 72 72 72 72 72 73 73 73 73 73 73 73 74 74 74 74 74 74 74 74 75 75 75 76 76 76 76 76 76 76 76 76 75 75 75 75 75 75 75 76 76 76 77 77 76 76 77 77 77 77 77 76 76 76 76
75 74 74 73 72 72 71 72 72 72 72 72 71 71 71 70 71 70 71 70 70 71 71 71 69 69 68 68 69 70 71 72 72 72 72 72 73 72 72 72 72 73 74 74 74 74 74 74 74 74 74 75 75 75 76 75 75 75 75 76 76 76 76 76 76 76 75 75 75 76 76 76 77 77 77 77 77 77 77 77 77 77 76 76 76
74 75 74 72 72 72 72 72 71 72 72 72 71 70 70 71 71 70 70 71 71 72 73 72 69 70 70 68 67 66 69 70 71 71 71 72 72 72 72 72 72 73 73 73 73 73 73 73 73 74 74 74 74 74 75 75 75 76 76 76 76 76 76 76 76 76 76 76 76 76 76 76 76 76 76 77 77 77 76 76 76 76 76 76 76
74 74 75 73 73 72 72 72 72 72 72 70 70 70 70 71 71 71 71 70 70 71 72 72 71 69 66 67 67 66 65 67 67 69 71 72 72 71 72 72 72 73 73 72 72 73 73 74 73 73 74 74 74 74 74 74 74 76 76 76 76 76 76 77 76 76 76 76 76 76 76 76 76 76 76 77 77 76 76 76 76 76 76 76 76
75 75 75 74 72 73 73 73 72 72 71 70 70 70 71 72 72 71 71 69 69 70 72 72 72 72 70 67 66 65 65 67 67 69 70 71 71 71 72 72 72 72 72 72 73 73 73 73 73 73 73 74 74 73 73 73 74 75 75 76 76 76 76 77 77 77 76 76 76 76 76 76 76 76 77 77 76 76 76 76 76 76 76 76 76
75 74 74 75 74 73 73 73 73 73 72 72 72 72 73 72 72 71 70 70 70 70 70 72 71 72 72 70 69 66 66 68 67 66 69 71 71 71 71 72 72 72 73 73 72 72 73 72 73 73 73 73 73 73 73 73 74 74 74 74 75 76 76 77 77 77 76 76 76 76 76 76 76 76 77 77 76 76 76 76 76 76 76 76 76
74 75 75 75 74 73 72 72 72 73 73 72 72 72 72 72 73 72 71 71 71 70 70 70 72 71 71 71 70 69 70 68 66 67 66 69 71 71 71 72 72 72 72 72 73 73 73 73 73 73 73 73 73 73 73 72 72 73 74 74 75 75 76 76 77 77 77 77 76 76 76 76 76 76 76 76 76 76 76 76 76 76 76 76 76
74 74 74 74 75 74 73 73 74 74 75 74 73 73 72 73 73 74 73 73 72 71 70 70 69 70 70 69 70 69 69 69 70 68 67 66 68 70 72 72 72 72 72 72 72 72 72 73 73 73 73 73 74 74 73 72 72 72 73 74 75 75 75 75 76 77 77 77 77 77 77 76 76 76 76 76 76 76 76 76 76 76 76 76 76
73 74 74 74 75 75 74 74 74 73 75 75 74 72 72 72 72 73 72 72 73 72 71 70 70 70 70 70 70 69 69 70 69 69 67 66 66 67 68 70 72 73 72 73 73 73 73 73 73 73 74 74 74 73 73 73 73 73 73 74 75 75 75 75 76 76 76 77 77 77 77 77 77 77 76 76 76 76 76 76 76 76 76 76 76
70 74 74 74 74 75 75 74 73 74 76 75 74 74 73 72 72 72 72 71 72 72 71 71 71 72 71 71 69 69 68 69 69 68 67 67 65 66 67 67 67 69 73 73 73 73 73 73 73 73 73 74 74 74 74 74 74 72 73 74 75 75 76 76 76 76 76 76 77 77 77 77 77 77 77 76 76 76 76 76 76 76 76 76 76
69 71 73 74 74 75 75 74 74 76 75 72 71 71 70 71 72 72 73 72 72 72 72 72 72 71 71 71 70 69 68 67 68 69 67 67 66 66 67 67 67 68 70 72 73 74 74 74 74 74 74 74 74 74 74 74 74 74 75 75 75 75 76 76 77 77 76 76 77 77 77 77 77 77 77 77 77 77 77 77 77 77 77 76 77
67 68 68 73 75 74 76 75 75 72 72 71 71 70 70 71 71 72 72 72 72 72 72 72 72 71 70 70 70 69 69 69 69 69 67 68 67 66 66 68 68 68 69 71 72 73 73 74 74 74 74 74 74 74 74 74 74 75 75 75 76 76 76 76 77 77 77 77 77 77 76 77 77 77 77 77 77 77 77 77 77 77 77 77 76
65 66 67 68 73 73 73 73 73 73 72 71 71 70 71 70 70 68 69 68 68 69 70 70 71 71 71 71 70 69 69 69 69 69 69 69 68 66 66 68 66 67 68 68 68 71 71 73 74 74 74 74 74 74 73 73 73 74 76 75 76 76 76 76 77 77 77 77 77 77 77 77 77 77 78 78 77 77 77 77 77 77 77 76 76
65 66 67 69 70 72 72 71 71 71 71 70 69 71 70 69 67 67 67 68 68 68 68 69 69 70 71 71 71 71 71 71 71 70 70 69 68 67 67 67 67 66 68 69 70 69 72 72 73 74 74 74 74 74 74 73 73 75 76 75 74 75 75 75 76 77 77 77 77 76 76 77 76 76 76 76 76 76 77 76 77 76 76 76 76
66 66 68 66 66 67 66 67 67 68 69 69 67 68 68 68 69 68 68 69 68 68 67 67 67 66 66 67 67 67 68 68 70 70 70 70 69 68 68 65 65 66 66 68 69 68 67 71 70 72 74 74 74 74 74 74 74 75 75 74 75 75 75 75 75 76 76 77 76 76 76 76 76 76 76 77 77 77 77 76 77 76 75 76 76
66 65 64 64 65 66 66 65 67 67 68 68 68 68 68 68 67 67 67 69 68 67 67 67 67 67 66 66 66 66 66 66 66 67 69 70 70 70 69 68 65 63 65 65 66 66 68 69 72 72 72 73 74 74 74 74 73 75 76 75 75 75 75 74 74 74 75 76 77 77 77 77 76 76 76 76 76 76 76 77 76 76 76 76 76
65 67 64 65 65 65 65 65 67 68 68 69 68 68 68 67 66 67 67 66 69 67 67 67 67 67 67 67 67 67 66 67 67 67 68 69 69 69 69 68 67 65 64 63 64 64 67 68 68 72 72 73 74 74 73 74 74 74 75 75 75 76 74 74 74 74 74 75 75 76 76 77 77 76 76 76 76 76 76 76 76 76 76 76 76
67 66 65 66 69 71 66 66 66 67 68 67 68 68 68 68 67 68 67 68 67 68 68 68 68 68 69 66 66 66 66 66 66 66 68 68 67 67 68 68 69 66 65 64 64 65 65 67 69 71 73 72 73 73 72 74 75 74 75 75 75 75 74 74 74 74 74 74 74 74 75 76 76 77 76 76 76 76 76 76 76 76 76 76 77
69 65 64 64 66 66 66 66 67 67 66 67 68 68 68 67 69 69 67 67 67 66 67 68 68 68 67 67 66 66 66 67 68 67 66 66 65 66 65 66 68 68 67 66 64 66 66 66 68 70 70 71 70 70 70 72 73 73 74 75 75 75 75 75 75 74 73 73 73 73 74 75 76 76 77 77 77 76 76 76 76 77 76 76 76
64 65 66 66 66 66 65 66 66 66 66 65 67 67 67 67 66 66 66 66 66 66 65 66 67 67 66 66 66 67 67 67 65 64 63 63 64 65 65 66 66 67 68 67 65 64 66 67 67 68 69 69 70 70 70 71 72 73 73 74 75 75 75 75 74 74 73 73 72 72 72 73 75 76 77 77 77 77 77 76 76 76 76 76 75
65 66 65 66 66 67 66 69 67 66 67 66 66 67 67 67 67 66 66 66 66 65 67 66 65 66 67 66 66 66 67 65 63 62 61 61 62 63 65 66 65 66 66 66 65 65 67 68 68 68 69 70 69 70 69 70 72 71 72 73 74 74 75 75 76 73 72 72 72 72 71 71 72 74 75 75 75 76 77 77 77 77 76 76 75
66 66 65 66 67 66 66 67 67 67 67 67 66 67 68 67 66 66 65 66 66 65 65 65 65 65 65 66 66 66 66 65 62 61 60 60 61 61 62 63 64 64 66 65 65 65 65 66 67 68 68 69 68 69 69 69 71 72 71 72 72 74 74 75 75 75 73 72 72 72 71 71 71 72 73 74 75 75 76 76 76 76 75 74 74
67 66 66 67 67 67 67 67 67 67 67 66 66 67 67 67 66 65 66 65 65 65 65 65 64 65 64 66 65 66 65 63 63 61 61 61 61 61 61 62 62 63 65 66 65 64 64 65 67 66 66 68 68 68 70 71 72 72 72 71 71 73 74 74 75 75 72 72 72 71 71 70 70 70 71 71 72 73 73 73 72 71 70 71 71
66 69 67 67 67 67 66 67 66 67 66 66 66 66 66 66 66 65 66 65 65 64 64 64 64 65 65 65 64 64 65 64 63 62 62 61 62 62 61 62 63 63 65 65 67 66 65 64 65 65 66 67 68 70 71 71 71 72 72 71 73 72 72 73 73 74 73 72 72 71 70 70 69 69 69 69 70 71 70 69 69 69 69 69 69
67 67 68 69 68 67 66 66 66 66 66 66 66 66 66 66 66 66 66 66 65 65 65 65 66 66 66 65 64 65 64 63 62 61 61 60 60 61 60 61 62 63 64 65 65 65 65 64 65 66 67 67 68 69 70 69 70 70 70 70 70 70 71 71 72 74 72 72 71 71 70 70 69 69 68 68 68 68 68 67 67 67 67 67 67
67 67 67 67 68 67 67 67 67 66 66 66 66 66 66 66 66 66 66 66 66 65 65 65 65 66 65 65 65 66 64 62 61 62 62 62 61 60 60 61 63 64 64 64 64 65 65 65 65 65 66 66 67 68 69 69 68 68 68 68 69 69 69 67 69 71 72 72 72 72 70 69 68 67 68 68 68 67 67 67 67 66 66 65 65
66 66 67 66 68 67 67 67 66 66 67 67 66 66 66 66 66 66 66 66 66 66 66 66 65 66 66 66 66 65 64 63 62 62 62 62 61 61 62 62 63 63 63 63 63 63 64 64 64 65 65 66 67 65 68 70 69 69 68 67 67 68 70 69 69 70 73 73 72 72 72 71 71 71 68 67 67 67 67 67 67 67 67 66 64
67 66 66 67 67 67 67 67 67 68 67 66 66 67 67 67 67 66 66 66 66 65 65 65 65 65 66 66 66 65 65 64 64 63 63 62 62 61 61 63 64 63 62 62 63 64 64 64 64 64 65 65 66 67 68 68 67 67 67 67 66 66 68 70 70 70 72 72 71 72 72 72 72 72 70 70 69 69 69 68 68 69 68 67 66
70 69 68 67 67 66 66 66 66 66 66 66 67 68 66 65 65 65 64 64 64 64 64 64 65 65 65 65 65 65 65 66 67 67 65 65 65 64 65 64 64 63 63 63 64 63 63 63 63 64 64 64 65 65 65 66 65 65 67 67 66 66 67 68 69 71 71 70 70 70 71 71 72 72 73 73 73 72 72 70 71 71 70 68 67
67 69 67 67 66 66 65 65 65 65 65 66 67 64 62 65 65 64 64 64 64 63 63 63 63 63 63 64 65 65 66 66 66 66 66 65 66 64 64 64 64 63 63 63 63 63 63 63 62 63 63 62 63 65 65 65 66 67 66 67 66 67 67 67 68 69 71 70 69 70 70 70 70 71 72 72 72 73 72 73 72 71 70 67 66
67 68 65 65 65 66 65 65 64 65 65 65 66 66 66 66 66 66 65 64 64 63 62 62 62 62 62 63 63 63 64 64 65 65 66 66 65 65 64 64 65 64 64 63 63 64 63 62 63 63 63 63 63 65 65 65 66 66 66 66 66 67 66 65 64 67 71 70 69 69 69 71 72 71 72 72 72 73 72 73 69 69 68 68 67
67 65 65 65 65 65 65 65 64 64 64 65 65 66 66 66 65 66 65 63 63 63 62 62 62 62 62 62 63 63 63 64 65 65 65 65 65 65 64 64 65 65 65 64 63 62 62 63 62 63 63 63 64 65 65 65 65 66 66 66 66 65 65 65 65 63 68 71 69 68 67 69 71 70 70 71 72 72 72 70 68 68 67 67 67
65 65 64 64 64 64 64 63 63 64 62 64 65 65 65 65 65 66 65 64 63 63 62 62 62 62 62 62 63 63 63 64 64 64 64 63 64 65 65 65 65 65 65 65 65 65 64 63 62 63 63 62 62 62 64 65 64 63 64 64 64 63 62 63 64 65 67 70 69 67 66 67 69 68 68 69 70 71 71 68 67 67 67 66 66
64 64 64 63 63 63 64 64 63 62 62 64 64 64 64 64 64 66 66 64 63 62 62 62 62 62 62 62 62 62 63 63 63 63 63 63 63 63 63 63 63 64 65 65 65 65 65 64 64 62 63 64 63 63 65 66 64 64 64 63 63 63 63 63 65 65 67 69 67 66 65 65 67 67 66 68 69 69 70 68 66 66 65 65 65
63 63 62 62 63 66 64 63 62 63 62 63 63 63 63 63 63 66 65 63 62 62 62 62 63 62 62 62 62 62 62 62 63 64 63 62 62 62 62 62 63 63 63 63 64 64 65 63 65 65 64 65 65 65 63 63 63 63 63 63 63 64 64 64 64 65 65 67 67 66 62 64 66 66 66 67 68 68 69 67 65 65 65 64 64
63 63 63 63 63 62 62 61 61 61 62 62 62 62 63 62 64 65 63 62 62 62 62 62 62 62 62 62 62 62 62 62 63 63 62 61 61 61 61 61 61 62 62 64 64 64 65 65 64 64 65 65 65 65 65 64 64 64 63 64 64 63 62 62 60 62 62 64 67 66 64 63 66 65 65 66 67 67 69 69 66 65 64 64 63
61 61 62 62 63 62 62 62 61 61 61 62 61 62 62 62 64 63 63 62 62 61 61 62 62 62 62 62 62 62 62 62 62 61 62 61 60 60 59 59 60 60 60 61 62 62 62 62 61 62 62 62 62 61 61 62 63 63 63 61 60 60 60 59 59 60 60 62 64 66 65 63 65 65 65 66 67 67 67 69 70 65 63 63 62
61 61 61 62 62 63 63 62 61 61 63 64 61 60 60 61 64 64 63 62 61 61 61 61 61 61 61 61 62 62 61 61 60 60 61 61 60 60 59 58 58 58 59 60 60 60 61 61 61 61 61 61 62 62 62 61 61 62 61 58 57 58 57 58 57 58 59 60 62 65 64 62 64 65 65 65 66 67 67 68 69 68 64 63 63
62 62 63 62 62 62 62 62 64 65 64 63 60 60 59 60 62 62 63 62 61 60 60 60 61 60 60 61 61 61 61 61 59 58 59 60 59 59 58 57 57 57 57 58 58 58 59 59 59 60 61 61 61 61 61 61 61 61 60 60 60 59 57 57 57 58 57 58 61 64 62 62 63 63 64 63 62 65 68 67 68 70 70 71 71